Flag for U.S.A. Weather past 2 weeks in Rochester, New York, U.S.A.

Now
53 °F

Clear.


Feels Like: 50 °F
Forecast: 51 / 73 °F
Wind: 10 mph from Southwest

Location: Greater Rochester International Airport

Current Time: May 23, 2015 at 11:32:37 PM

Latest Report: May 23, 2015 at 10:54 PM


Visibility: 10 mi

Pressure: 30.30 "Hg

Humidity: 32%

Dew point: 24 °F

Location of RochesterLocation

Historic Weather in Rochester — Graph

°F

Rochester temperature yesterday

Maximum temperature yesterday: 59 °F (at 1:54 PM)
Minimum temperature yesterday: 42 °F (at 11:54 PM)
Average temperature yesterday: 53 °F

Past Weeks' High & Low Weather Summary

 TemperatureHumidityPressure
High92 °F (May 9, 3:54 PM)97% (May 11, 5:54 AM)30.50 "Hg (May 11, 5:54 AM)
Low32 °F (May 23, 5:54 AM)18% (May 23, 7:54 PM)29.79 "Hg (May 12, 2:54 AM)
Average62 °F62%30.09 "Hg
* Reported May 8 9:54 PM — May 23 9:54 PM, Rochester, Weather by CustomWeather, © 2015

Note: Actual official high and low records may vary slightly from our data, if they occured in-between our weather recording intervals... More about our weather records

Advertising

Rochester weather history for previous 24 hours

 ConditionsComfort  
Time TempWeatherWind HumidityBarometerVisibility
9:54 PM
Sat, May 23
55 °FClear.8 mph28%30.30 "Hg10 mi
8:54 PM58 °FPassing clouds.8 mph22%30.29 "Hg10 mi
7:54 PM62 °FPassing clouds.13 mph18%30.30 "Hg10 mi
6:54 PM65 °FPassing clouds.15 mph20%30.32 "Hg10 mi
5:54 PM66 °FPassing clouds.14 mph20%30.34 "Hg10 mi
4:54 PM66 °FPassing clouds.13 mph19%30.35 "Hg10 mi
3:54 PM65 °FSunny.9 mph20%30.37 "Hg10 mi
2:54 PM64 °FSunny.14 mph20%30.39 "Hg10 mi
1:54 PM64 °FSunny.15 mph22%30.39 "Hg9 mi
12:54 PM61 °FSunny.9 mph25%30.41 "Hg10 mi
11:54 AM58 °FSunny.9 mph27%30.43 "Hg10 mi
10:54 AM56 °FSunny.8 mph29%30.45 "Hg10 mi
9:54 AM51 °FSunny.8 mph41%30.45 "Hg10 mi
8:54 AM48 °FSunny.8 mph50%30.44 "Hg10 mi
7:54 AM42 °FSunny.7 mph68%30.43 "Hg10 mi
6:54 AM36 °FSunny.6 mph82%30.42 "Hg10 mi
5:54 AM32 °FClear.5 mph88%30.41 "Hg10 mi
4:54 AM33 °FClear.3 mph88%30.39 "Hg10 mi
3:54 AM34 °FClear.5 mph85%30.37 "Hg10 mi
2:54 AM35 °FClear.5 mph82%30.36 "Hg10 mi
1:54 AM36 °FClear.5 mph79%30.34 "Hg10 mi
12:54 AM41 °FClear.5 mph60%30.33 "Hg10 mi
11:54 PM
Fri, May 22
42 °FClear.5 mph55%30.32 "Hg10 mi
Weather by CustomWeather, © 2015

See weather overviewHow to use our weather pages